This demonstration page uses our WeatherBlox Daily Observations layout. Learn more.

Left ArrowRight Arrow

41.55636, -103.73856

Hourly Observations for December 7, 2022

Temp ( °F °C ) Dew Point ( °F °C ) Humidity (%) Winds ( mph kmh ) Pressure ( in mb ) Visibility ( mi km ) Precip ( " mm )
12:55 am 00:55 Clear 30 -1.2 11 -11.9 44 44 W 9 15 30.03 1017 10 16 0.00 0.00
1:55 am 01:55 Clear 30 -1.2 11 -11.9 44 44 WNW 14 22 30.05 1018 10 16 0.00 0.00
2:55 am 02:55 Clear 24 -4.5 11 -11.7 57 57 W 7 11 30.09 1019 10 16 0.00 0.00
3:55 am 03:55 Clear 22 -5.6 12 -11 66 66 WSW 9 15 30.11 1020 10 16 0.00 0.00
4:55 am 04:55 Clear 28 -2.5 11 -11.5 50 50 W 8 13 30.13 1020 10 16 0.00 0.00
5:55 am 05:55 Clear 24 -4.3 10 -12 55 55 WNW 13 20 30.17 1022 10 16 0.00 0.00
6:55 am 06:55 Clear 23 -4.8 11 -11.4 60 60 W 14 22 30.22 1023 10 16 0.00 0.00
7:55 am 07:55 Sunny 26 -3.3 12 -11.3 54 54 WSW 7 11 30.24 1024 10 16 0.00 0.00
8:55 am 08:55 Sunny 35 1.7 11 -11.5 37 37 Calm 30.21 1023 10 16 0.00 0.00
9:55 am 09:55 Sunny 39 3.9 9 -13 28 28 WNW 5 7 30.21 1023 10 16 0.00 0.00
10:55 am 10:55 Sunny 41 4.9 9 -12.6 27 27 N 7 11 30.20 1023 10 16 0.00 0.00
11:55 am 11:55 Sunny 42 5.7 7 -13.8 23 23 Calm 30.16 1022 10 16 0.00 0.00
12:55 pm 12:55 Sunny 44 6.7 6 -14.7 20 20 Calm 30.13 1020 10 16 0.00 0.00
1:55 pm 13:55 Sunny 46 8 6 -14.3 19 19 ENE 3 6 30.11 1020 10 16 0.00 0.00
2:55 pm 14:55 Sunny 45 7.2 9 -12.6 23 23 E 9 15 30.13 1020 10 16 0.00 0.00
3:55 pm 15:55 Mostly Sunny 42 5.4 14 -10 32 32 S 12 19 30.16 1021 10 16 0.00 0.00
4:55 pm 16:55 Partly Cloudy 39 3.9 14 -9.8 36 36 S 13 20 30.15 1021 10 16 0.00 0.00
5:55 pm 17:55 undefined 35 1.5 15 -9.7 43 43 SSE 10 17 30.18 1022 10 16 0.00 0.00
6:55 pm 18:55 undefined 34 1.3 14 -9.9 43 43 S 8 13 30.18 1022 10 16 0.00 0.00
7:55 pm 19:55 Mostly Clear 33 0.6 13 -10.3 44 44 ESE 5 7 30.15 1021 10 16 0.00 0.00
8:55 pm 20:55 undefined 35 1.9 12 -11.3 37 37 E 8 13 30.11 1020 10 16 0.00 0.00
9:55 pm 21:55 undefined 34 1.3 11 -11.5 38 38 SE 10 17 30.10 1019 10 16 0.00 0.00
10:55 pm 22:55 Mostly Cloudy 26 -3.1 14 -10.2 58 58 ESE 7 11 30.11 1020 10 16 0.00 0.00
11:55 pm 23:55 Clear 28 -2.4 15 -9.5 58 58 SE 7 11 30.08 1019 10 16 0.00 0.00

Powered by AerisWeather